Regional Weather Roundup
Issued by NWS

Home | Current Version | Previous Version | Graphics & Text | Print | Product List | Glossary On
Versions: 1 2 3 4 5 6 7 8 9 10 11 12 13 14 15 16 17 18 19 20 21 22 23 24 25 26 27 28 29 30 31 32 33 34 35 36 37 38 39 40 41 42 43 44 45 46 47 48 49 50
000
ASUS45 KABQ 032110
RWRNM
NEW MEXICO REGIONAL WEATHER ROUNDUP
NATIONAL WEATHER SERVICE ALBUQUERQUE NM
300 PM MDT MON AUG 03 2015

NOTE: "FAIR" MEANS FEW OR NO CLOUDS BELOW 12,000 FEET AGL WITH NO
       SIGNIFICANT WEATHER OR OBSTRUCTIONS TO VISION.

      THIS PRODUCT IS RELEASED AS TWO VERSIONS.  ONE VERSION NEAR
      THE TOP OF THE HOUR CONTAINING PRELIMINARY DATA FROM ALBUQUERQUE
      AND OTHER STATIONS.  A FINAL VERSION WITH ADDITIONAL DATA IS
      ISSUED ABOUT 10 MINUTES AFTER THE HOUR.

NMZ501-503-504-510>518-032200-
NORTHWEST PLATEAU/NORTHCENTRAL MOUNTAINS

CITY           SKY/WX    TMP DP  RH WIND       PRES   REMARKS
FARMINGTON     MOSUNNY   85  51  31 W10G21    30.15F
LOS ALAMOS     MOSUNNY   75  53  44 N5        30.26F
SANTA FE       MOSUNNY   82  52  35 VRB3      30.18F
TAOS           MOSUNNY  N/A N/A N/A CALM      30.23F
ANGEL FIRE     FAIR      71  51  48 W15       30.32F

$$
NMZ402-403-502-505>509-032200-
WESTCENTRAL MOUNTAINS/SOUTHWEST MOUNTAINS

CITY           SKY/WX    TMP DP  RH WIND       PRES   REMARKS
GALLUP         PTSUNNY   85  41  21 VRB6      30.23F
GRANTS         SUNNY     81  46  29 NW12G18   30.26S
SILVER CITY      N/A     90  46  22 NW15      30.15F

$$
NMZ407-409-411-412-032200-
SOUTHERN DESERTS

CITY           SKY/WX    TMP DP  RH WIND       PRES   REMARKS
LORDSBURG      FAIR      91  46  21 NW10G16   30.05F
DEMING         MOSUNNY   93  48  21 MISG      30.05F
LAS CRUCES     SUNNY     88  55  32 N5        30.07F
HOLLOMAN AFB   MOSUNNY   94  53  25 W6        30.00F
ALAMOGORDO     MOSUNNY   93  54  26 SW7G22    30.03F
T OR C         MOSUNNY   91  52  26 MISG      30.07F

$$
NMZ519>523-032200-
CENTRAL VALLEYS/CENTRAL HIGHLANDS

CITY           SKY/WX    TMP DP  RH WIND       PRES   REMARKS
ALBUQUERQUE    MOSUNNY   87  46  24 N13       30.14F
DOUBLE EAGLE   PTSUNNY   84  55  37 NW18G25   30.18F
MORIARTY ARPT    N/A     83  41  22 W14G22    30.19F
CLINES CORNERS SUNNY     78  51  38 W17G28    30.23F
BELEN          FAIR      89  46  22 N9G20     30.12F
SOCORRO        FAIR      91  47  22 N10G28    30.08F

$$
NMZ524>526-539-540-032200-
SOUTHCENTRAL MOUNTAINS

CITY           SKY/WX    TMP DP  RH WIND       PRES   REMARKS
RUIDOSO          N/A    N/A N/A N/A MISG        N/A

$$
NMZ527>531-032200-
NORTHEAST HIGHLANDS/NORTHEAST PLAINS

CITY           SKY/WX    TMP DP  RH WIND       PRES   REMARKS
RATON          PTSUNNY   81  54  39 N7        30.13F
CLAYTON        MOSUNNY   84  65  52 SE15G22   30.05F

$$
NMZ532>537-032200-
EASTCENTRAL PLAINS

CITY           SKY/WX    TMP DP  RH WIND       PRES   REMARKS
TUCUMCARI      MOSUNNY   87  62  43 VRB3      29.99F
CANNON AFB     SUNNY     87  59  38 VRB2      30.03F
CLOVIS AIRPORT PTSUNNY   88  61  40 S7        30.04F

$$
NMZ028-029-538-032200-
SOUTHEAST PLAINS

CITY           SKY/WX    TMP DP  RH WIND       PRES   REMARKS
ROSWELL        PTSUNNY   91  57  31 MISG      30.00R THUNDER
ARTESIA        MOSUNNY   93  59  31 VRB5G12   30.00R
CARLSBAD       SUNNY     97  58  27 E8G16     29.94F HX  96
HOBBS          SUNNY     93  59  31 VRB7      29.99F


$$


USA.gov is the U.S. government's official web portal to all federal, state and local government web resources and services.